This demonstration page uses our WeatherBlox Daily Observations layout. Learn more.

Left ArrowRight Arrow

44.8408, -93.29828

Hourly Observations for July 13, 2016

Temp ( °F °C ) Dew Point ( °F °C ) Humidity (%) Winds ( mph kmh ) Pressure ( in mb ) Visibility ( mi km ) Precip ( " mm )
12:53 am 00:53 Clear 76 24.4 61 16.1 60 60 SSW 10 17 29.73 1007 10 16 0.00 0.00
1:53 am 01:53 Clear 75 23.9 60 15.6 60 60 SSW 12 19 29.72 1006 10 16 0.00 0.00
2:53 am 02:53 Clear 75 23.9 62 16.7 64 64 SW 14 22 29.71 1006 10 16 0.00 0.00
3:53 am 03:53 Clear 74 23.3 62 16.7 67 67 SW 10 17 29.70 1006 10 16 0.00 0.00
4:53 am 04:53 Clear 74 23.3 64 17.8 71 71 SW 13 20 29.70 1006 10 16 0.00 0.00
5:53 am 05:53 Mostly Sunny 73 22.8 65 18.3 76 76 WSW 10 17 29.72 1007 10 16 0.00 0.00
6:53 am 06:53 Mostly Sunny 73 22.8 66 18.9 79 79 SW 13 20 29.71 1006 10 16 0.00 0.00
7:53 am 07:53 Partly Cloudy 74 23.3 67 19.4 79 79 WSW 9 15 29.71 1006 10 16 0.00 0.00
8:53 am 08:53 Partly Cloudy 76 24.4 64 17.8 67 67 WSW 13 20 29.71 1006 10 16 0.00 0.00
9:53 am 09:53 Mostly Cloudy 77 25 62 16.7 60 60 WSW 12 19 29.73 1007 10 16 0.00 0.00
11:53 am 11:53 Mostly Cloudy 81 27 59 15 48 48 WSW 16 26 29.71 1006 10 16 0.00 0.00
12:53 pm 12:53 Mostly Sunny 82 28 57 14 42 42 WSW 17 28 29.71 1006 10 16 0.00 0.00
1:53 pm 13:53 Mostly Sunny 84 29 55 13 37 37 WSW 17 28 29.68 1005 10 16 0.00 0.00
2:53 pm 14:53 Mostly Sunny 84 28.9 56 13.3 38 38 W 24 39 29.69 1006 10 16 0.00 0.00
3:53 pm 15:53 Partly Cloudy 83 28.3 57 13.9 41 41 W 16 26 29.71 1006 10 16 0.00 0.00
4:53 pm 16:53 Partly Cloudy 84 29 57 14 40 40 W 23 37 29.68 1005 10 16 0.00 0.00
5:53 pm 17:53 Partly Cloudy 83 28.3 58 14.4 43 43 W 18 30 29.70 1006 10 16 0.00 0.00
6:53 pm 18:53 Mostly Sunny 82 27.8 56 13.3 41 41 W 20 31 29.70 1006 10 16 0.00 0.00
7:53 pm 19:53 Mostly Sunny 80 26.7 56 13.3 44 44 W 14 22 29.72 1007 10 16 0.00 0.00
8:53 pm 20:53 Mostly Sunny 79 26.1 57 13.9 47 47 W 12 19 29.74 1007 10 16 0.00 0.00
9:53 pm 21:53 Partly Cloudy with Light Rain 71 21.7 62 16.7 73 73 NW 12 19 29.77 1008 8 13 0.00 0.03
10:53 pm 22:53 Mostly Clear 71 21.7 58 14.4 63 63 WNW 15 24 29.78 1008 10 16 0.00 0.03
11:53 pm 23:53 Mostly Clear 71 21.7 52 11.1 51 51 W 18 30 29.78 1009 10 16 0.00 0.00

Powered by AerisWeather